SCP
0 0 1 1 1 1 1 1 1 1 1 1 1 1 1 1 1 1 1 1 1 1 1 1 1 0 0 0 0 0 0 0 0 0 0 0 0 0 0 0 0 0 0
0 0 1 1 1 1 1 1 1 1 1 1 1 1 1 1 1 1 1 1 1 1 0 0 0 0 0 0 0 0 0 0 0 0 0 0 0 0 0 0 0 0 0
0 0 1 1 1 1 1 1 1 1 1 1 1 1 1 1 1 1 1 1 1 0 0 0 0 0 0 0 0 0 0 0 0 0 0 0 0 0 0 0 0 0 0
0 1 1 1 1 1 2 2 1 1 1 1 1 1 1 1 1 1 1 1 0 0 0 0 0 0 0 0 0 0 0 0 0 0 0 0 0 0 0 0 0 0 0
0 1 1 1 1 1 1 1 1 1 1 1 1 1 1 1 1 1 1 1 0 0 0 0 0 0 0 0 0 0 0 0 0 0 0 0 0 0 0 0 0 0 0
0 1 1 1 1 1 1 1 1 1 1 1 1 1 1 1 1 1 1 1 1 1 1 1 0 0 0 0 0 0 0 0 0 0 0 0 0 0 0 0 0 0 0
0 1 1 1 1 1 1 1 1 1 1 1 1 1 1 1 1 1 1 1 1 1 1 1 0 0 0 0 0 0 0 0 0 0 0 0 0 0 0 0 0 0 0
0 1 1 1 1 1 1 1 1 1 1 1 1 1 0 0 1 1 0 1 1 1 0 0 0 0 0 0 0 0 0 0 0 0 0 0 0 0 0 0 0 0 0
1 1 1 1 1 1 1 1 1 1 1 1 1 0 0 0 0 0 0 0 0 0 0 0 0 0 0 0 0 0 0 0 0 0 0 0 0 0 0 0 0 0 0
1 1 1 1 1 1 1 1 1 1 1 1 1 0 0 0 0 0 0 0 1 1 0 0 0 0 0 0 0 0 0 0 0 0 0 0 0 0 0 0 0 0 0
1 1 1 1 1 1 1 1 1 1 1 0 0 0 0 0 0 0 0 0 1 0 0 0 0 0 0 0 1 1 0 0 0 0 0 1 1 1 0 0 0 0 0
0 0 1 1 1 1 1 1 1 1 0 0 0 0 0 0 0 0 0 0 0 0 0 0 0 0 0 0 0 0 0 0 0 0 0 1 1 1 0 0 0 1 0
0 0 0 0 0 0 1 1 1 1 1 1 1 1 1 1 0 0 0 0 0 0 0 0 1 1 0 0 0 0 0 0 0 0 0 1 1 1 0 0 0 1 1
0 0 0 0 0 0 0 1 1 1 1 1 1 1 1 1 1 0 0 0 0 0 0 0 1 1 0 0 0 0 0 0 0 0 0 1 1 0 0 0 0 0 1
0 0 0 0 0 0 0 1 1 1 1 1 1 1 1 1 1 1 1 0 0 0 0 1 1 1 1 1 0 0 0 0 0 0 0 1 1 0 0 0 0 0 0
0 0 0 0 0 0 0 1 1 1 1 1 1 1 1 1 1 1 1 1 0 0 1 1 1 1 1 1 1 0 0 0 0 0 0 1 1 1 0 0 0 0 0
0 0 0 0 0 0 0 1 1 1 1 1 1 1 1 1 1 1 1 1 1 1 1 1 1 1 1 1 1 1 1 0 0 0 0 1 1 1 1 1 1 1 1
0 1 1 1 1 0 0 1 1 1 1 1 1 1 1 1 1 1 1 1 1 1 1 1 1 1 1 1 1 1 1 1 0 0 0 1 1 1 1 1 1 1 1
1 1 2 2 1 1 1 1 1 1 1 0 1 1 0 0 0 0 1 1 1 1 1 1 1 1 1 1 1 1 1 1 0 0 0 1 1 1 1 1 1 1 1
1 2 3 3 2 1 1 1 1 1 0 0 0 0 0 0 0 0 1 1 1 1 1 1 1 1 1 1 1 1 1 1 0 0 0 0 1 1 1 1 1 1 1
2 2 2 3 2 2 1 1 1 1 1 0 0 0 0 0 1 1 1 1 1 2 1 1 1 1 1 1 1 1 1 1 1 0 0 0 0 0 1 1 1 1 1
2 2 2 2 2 2 1 1 1 1 1 0 0 1 1 1 1 1 1 1 1 1 1 1 1 1 1 1 2 1 1 1 1 1 1 1 1 1 1 1 1 1 1
2 2 1 2 2 1 1 1 1 1 1 1 1 1 1 1 1 1 1 1 1 1 1 1 2 2 2 2 3 2 2 1 1 1 1 1 1 1 1 1 1 1 1
2 2 1 1 2 2 2 1 1 1 1 1 1 1 1 2 2 2 2 2 2 2 2 3 3 4 4 4 4 4 3 2 2 1 1 1 1 1 1 1 1 1 1
2 2 2 2 2 2 2 2 1 1 1 1 1 2 2 2 2 2 2 3 3 4 4 4 5 5 5 5 5 4 3 3 2 2 1 1 1 1 1 1 1 1 1
3 2 2 2 2 3 3 2 2 1 1 1 1 2 2 2 2 2 3 4 4 4 4 5 5 6 5 5 4 3 3 3 3 2 1 1 1 1 1 1 1 1 1
Wind_Speed
6 8 9 11 13 14 15 16 16 17 17 17 17 17 17 17 17 17 16 16 16 15 15 14 13 13 13 12 12 12 13 12 12 13 13 13 12 13 12 12 10 12 14
8 10 10 12 14 15 16 16 16 17 17 16 16 16 16 16 16 16 15 15 15 14 14 13 13 13 12 12 12 12 11 11 11 12 12 12 12 11 10 8 7 11 12
10 11 11 13 14 15 16 16 16 16 16 16 15 15 15 15 15 14 14 14 14 13 13 13 12 12 11 11 11 10 10 10 10 10 9 9 11 10 9 10 11 12 12
11 11 12 15 14 15 15 16 16 16 16 15 14 14 14 14 14 14 13 13 12 12 12 12 12 11 10 10 10 9 10 10 8 7 6 7 9 11 9 10 11 11 11
12 12 14 15 15 15 15 15 15 16 15 14 14 13 13 13 13 13 12 12 11 11 11 11 11 10 9 9 9 9 9 8 6 5 6 6 8 10 9 9 10 10 10
13 13 15 15 15 14 14 14 14 15 14 14 13 12 12 12 12 11 11 11 10 10 10 10 9 9 8 8 7 7 7 6 7 5 6 5 7 9 8 8 9 9 9
12 12 15 14 14 14 13 13 13 14 14 13 12 11 10 10 10 10 10 9 9 9 9 8 8 8 7 7 7 6 5 4 2 4 5 5 7 8 7 7 8 8 8
12 11 13 14 14 13 13 12 13 13 13 12 11 11 10 9 9 9 8 8 8 7 7 7 7 7 6 6 6 5 4 5 4 4 4 5 9 6 6 7 7 8 8
11 11 11 12 12 13 12 12 12 11 11 11 10 10 9 9 8 8 7 7 6 6 6 6 6 5 5 5 5 5 3 3 2 3 4 5 8 6 6 6 7 7 8
9 10 10 10 9 10 11 11 10 10 10 10 9 9 9 9 9 8 7 6 6 5 5 5 5 4 4 4 4 4 4 6 3 4 3 7 8 6 6 6 6 7 8
8 8 9 10 9 8 9 11 10 10 10 9 9 9 8 7 7 7 7 6 5 5 4 4 4 4 5 6 5 5 6 3 2 2 2 9 7 6 6 6 6 7 7
10 9 8 8 8 8 7 7 6 7 7 6 5 6 5 4 3 4 8 6 5 5 5 5 4 6 7 5 7 8 4 3 2 2 4 8 7 7 7 7 7 7 7
11 9 9 7 7 7 5 5 4 3 4 5 5 4 3 4 4 4 4 5 5 7 5 7 7 4 3 1 2 3 2 2 1 1 5 8 7 7 7 7 8 8 8
11 10 9 9 7 6 4 4 4 3 3 3 4 5 3 2 2 3 2 3 3 2 2 2 2 2 2 2 2 2 3 3 2 1 4 8 7 7 8 8 8 8 8
11 11 9 8 7 5 4 3 3 3 3 3 3 3 3 2 2 2 2 1 2 2 3 3 2 2 2 3 3 3 3 2 3 3 3 8 8 8 8 8 9 9 9
10 10 9 9 8 7 5 4 3 3 2 2 3 3 3 2 2 2 2 2 1 2 1 2 2 2 2 2 2 2 4 3 3 3 3 6 10 9 9 9 9 10 10
11 10 10 9 9 8 7 6 4 3 4 3 2 3 3 3 2 2 2 2 1 1 2 2 2 2 3 3 2 3 3 3 3 4 4 3 5 10 10 10 9 10 10
10 10 10 9 9 9 7 6 4 3 3 3 3 3 4 3 3 2 2 2 1 2 2 2 2 2 2 2 2 3 2 3 3 4 4 4 3 3 8 10 9 9 10
11 10 10 9 9 9 8 6 5 4 4 3 3 3 4 4 4 3 2 1 3 2 2 3 2 2 2 2 3 3 3 3 3 4 3 3 3 3 3 7 9 9 9
11 11 10 10 10 9 7 6 5 5 5 4 4 4 4 4 5 4 3 3 3 2 2 2 2 2 2 2 3 1 2 2 3 2 3 3 3 4 4 3 5 7 10
12 11 11 11 10 8 7 7 6 6 5 5 5 5 6 5 5 4 3 3 3 2 2 3 3 4 3 2 2 2 3 3 2 2 3 2 2 2 2 3 4 3 5
13 12 12 12 11 10 7 6 5 5 5 4 4 5 6 6 6 6 5 4 3 2 3 3 3 3 2 2 2 3 2 3 3 2 2 2 2 2 2 3 3 3 4
13 13 12 12 12 11 9 7 6 5 5 5 6 5 6 7 7 6 5 5 3 4 3 4 4 4 3 2 2 2 2 1 0 2 2 2 2 2 2 2 3 3 4
13 13 13 13 12 12 11 10 9 7 6 6 5 5 6 7 7 6 6 6 5 4 4 5 4 4 4 3 3 3 3 2 3 1 2 2 2 3 3 3 3 3 3
13 12 12 12 12 12 12 11 10 9 7 6 5 5 6 6 7 7 7 6 6 5 5 5 3 5 4 4 3 3 3 3 5 3 3 2 2 2 2 3 3 2 3
12 11 11 12 12 12 12 12 11 10 8 7 7 6 6 5 6 8 7 6 6 5 5 5 5 6 5 4 4 4 3 3 3 3 4 4 3 2 2 2 3 2 3
Wind_Direction
126 117 120 123 123 123 122 120 121 121 121 119 118 117 116 115 113 112 112 111 111 111 110 110 108 106 104 103 103 103 104 107 110 112 113 113 113 113 115 124 134 113 115
125 120 123 125 123 123 122 121 121 124 121 119 117 117 117 116 114 112 112 112 112 113 112 111 109 106 105 104 103 104 106 110 113 116 120 119 113 113 115 112 88 106 123
126 125 129 122 121 123 123 122 121 121 120 118 118 118 118 117 115 113 114 114 114 114 112 110 108 107 106 105 105 106 107 109 114 124 146 129 118 116 116 110 106 118 123
125 127 123 124 122 122 122 122 123 122 120 119 119 119 119 119 119 118 117 116 117 116 115 112 111 109 108 107 107 107 108 109 119 161 150 115 119 118 123 122 123 124 125
122 121 118 124 123 122 122 122 124 123 123 122 120 119 120 121 121 121 120 118 117 118 117 115 113 110 108 107 108 110 113 117 144 191 105 108 110 121 128 132 133 132 131
126 125 121 127 125 123 122 123 125 125 125 124 123 123 123 124 123 122 121 119 120 120 120 119 116 113 112 112 112 113 119 143 193 127 117 125 116 126 133 139 142 141 140
125 124 124 128 128 127 126 126 127 129 129 128 127 126 127 126 124 123 122 122 121 123 123 125 124 121 118 118 118 120 130 188 186 115 124 124 106 124 138 146 149 148 148
127 127 125 129 130 130 129 129 130 131 132 132 132 132 132 130 128 126 124 125 123 125 130 131 132 129 124 123 124 126 145 227 151 125 126 116 107 131 145 154 155 156 157
130 131 132 136 135 135 133 135 133 134 135 134 135 135 135 134 134 132 131 130 130 131 134 136 135 132 131 131 133 141 156 267 212 136 136 118 125 148 155 163 168 168 168
131 132 136 135 134 141 139 138 137 137 135 135 137 139 143 147 147 148 155 142 143 143 144 145 143 141 140 141 147 158 186 234 194 162 149 123 141 164 172 176 181 178 175
137 139 141 136 140 142 141 140 147 146 142 151 149 152 167 162 153 162 132 136 152 157 160 161 155 156 164 163 165 180 211 218 164 158 120 119 157 180 188 187 189 189 187
148 147 143 143 145 144 141 141 157 155 151 158 147 156 155 143 148 140 130 157 167 169 175 175 176 190 211 176 167 195 208 183 190 168 125 137 172 192 197 197 200 198 196
151 153 156 149 148 145 145 152 149 141 145 155 151 157 153 161 158 157 154 164 175 186 185 168 192 203 194 178 198 191 188 212 192 192 130 152 184 202 206 206 205 203 203
158 161 160 157 158 159 155 147 156 155 155 154 154 178 168 167 165 145 165 159 173 176 185 193 192 187 195 208 229 214 214 227 205 201 137 160 193 207 213 214 212 213 212
166 167 166 165 163 164 168 179 163 160 168 162 171 180 187 181 172 155 161 181 191 178 189 197 202 191 206 205 214 205 224 240 244 237 158 171 196 210 219 221 218 217 220
172 171 170 175 172 173 180 188 177 181 179 190 183 181 202 193 176 188 182 185 194 206 200 207 190 200 221 209 218 221 232 224 219 248 239 183 194 206 218 224 226 224 224
176 175 177 181 180 183 190 192 187 190 186 199 186 187 203 199 181 208 204 202 195 189 188 209 197 207 210 204 210 229 236 244 226 236 250 246 202 196 208 221 226 227 228
180 179 185 188 183 187 193 194 193 195 192 202 200 195 205 209 209 229 220 208 190 216 204 195 215 211 204 218 217 233 230 221 231 230 236 236 245 223 197 206 220 224 227
185 184 186 191 188 190 189 192 201 194 201 209 211 210 198 205 210 225 223 199 210 218 223 224 189 226 214 231 227 210 231 224 217 223 232 234 231 247 235 181 199 215 224
187 187 188 189 191 190 188 190 200 203 204 209 212 210 209 206 209 229 213 205 228 219 223 220 213 234 248 242 260 233 238 226 225 217 236 223 220 228 233 224 203 203 209
189 190 192 194 188 192 194 198 198 201 206 205 209 203 207 214 207 221 236 196 226 224 235 225 227 217 230 227 250 235 213 208 211 211 227 244 221 228 230 228 241 241 196
191 193 194 196 194 198 198 204 207 211 212 208 214 197 208 211 212 209 220 225 213 219 226 226 230 247 235 211 253 262 230 186 196 209 208 214 234 223 220 219 226 229 250
193 195 197 197 197 202 199 202 199 200 215 205 204 202 208 211 214 225 217 230 229 234 222 227 228 234 240 224 236 270 280 284 250 179 213 216 227 253 249 233 227 230 233
195 194 196 196 199 199 201 208 207 209 214 213 209 201 202 210 217 218 222 222 226 233 223 229 217 231 239 241 217 232 267 306 282 244 221 211 222 246 267 260 237 220 227
194 192 193 194 198 199 204 206 211 218 218 215 211 206 218 210 216 220 219 220 219 227 225 235 229 236 233 242 247 235 234 233 249 264 269 271 248 245 237 239 243 241 231
193 193 192 192 198 200 204 207 212 219 220 222 217 214 214 213 213 214 219 219 221 225 220 224 230 228 236 243 253 251 245 248 244 252 261 262 261 252 249 251 247 243 242